Hourly Data Report for January 30, 2017

All times are specified in Local Standard Time (LST). Add 1 hour to adjust for Daylight Saving Time where and when it is observed.

ST LEONARD CS
NEW BRUNSWICK

47°09'28.050" N
67°49'55.014" W
245.00 m
810I001
71019
WIY

Download Data

Hourly Data (January 2017)
Hourly Data Report for January 30, 2017
Temp Definition
°C
Dew Point Temp Definition
°C
Rel Hum Definition
%
Wind Dir Definition
10's deg

Wind Spd Definition
km/h
Visibility Definition
km
Stn Press Definition
kPa
Hmdx Definition


Wind Chill Definition


Weather Definition


TIME
00:00 -7.6 -8.6 93 30 11   97.21   -13 LegendNANA
01:00 -7.9 -9.2 91 32 12   97.20   -13 LegendNANA
02:00 -8.3 -9.5 91 31 15   97.20   -15 LegendNANA
03:00 -10.1 -10.8 94 25 5   97.24   -13 LegendNANA
04:00 -11.4 -12.6 91 29 7   97.25   -16 LegendNANA
05:00 -11.5 -12.4 93 13 2   97.29   -13 LegendNANA
06:00 -10.5 -11.2 94 21 3   97.31   -12 LegendNANA
07:00 -10.9 -11.6 94 23 2   97.33   -12 LegendNANA
08:00 -10.6 -11.3 94 26 3   97.38   -12 LegendNANA
09:00 -11.2 -12.0 93 22 4   97.42   -14 LegendNANA
10:00 -11.1 -12.4 90 19 5   97.46   -14 LegendNANA
11:00 -9.3 -11.6 83 19 7   97.47   -13 LegendNANA
12:00 -8.9 -12.7 74 29 6   97.43   -12 LegendNANA
13:00 -7.6 -12.0 71 27 11   97.40   -13 LegendNANA
14:00 -7.2 -11.6 71 30 10   97.38   -12 LegendNANA
15:00 -6.5 -11.2 69 27 11   97.39   -11 LegendNANA
16:00 -6.7 -11.3 70 31 10   97.43   -11 LegendNANA
17:00 -7.4 -10.8 77 30 8   97.47   -11 LegendNANA
18:00 -8.9 -10.5 88 32 3   97.53   -11 LegendNANA
19:00 -9.2 -11.3 84 35 6   97.58   -13 LegendNANA
20:00 -10.1 -12.0 86 35 6   97.59   -14 LegendNANA
21:00 -11.0 -12.6 88 32 7   97.60   -15 LegendNANA
22:00 -10.8 -12.2 89 30 11   97.64   -17 LegendNANA
23:00 -11.4 -12.5 91 32 9   97.65   -17 LegendNANA

Notes on Data Quality.

Legend

  • E = Estimated
  • M = Missing
  • NA = Not Available
  • ‡ = Partner data that is not subject to review by the National Climate Archives
Date modified: